Powrót do katalogu

FENGYUN 1C DEB

AktywnyPO
NORAD 31823·DEBRIS·🇨🇳 China

Wystrzelony May 10, 1999 z Taiyuan Satellite Launch Center

Loading…

Następne Przeloty (najbliższe 24 godziny)

TLE

ŚwieżeSource: Space-Track

Epoka: Sep 14, 2026, 04:15 UTC

1 31823U 99025CHM 26257.17737860  .00005110  00000-0  82935-3 0  9990
2 31823  99.5182  33.0649 0036745 100.0210 260.5141 14.71275447  7599

Śledź FENGYUN 1C DEB w czasie rzeczywistym z AllMySat

Download on the App Store